Location: hvezdarna zebrak
(49.8744°N, 13.8989°E)
Time: 09:18:16
(UTC+01:00)

BlueWalker 3 - Visible Passes

Search period start: 12 March 2026 00:00
Search period end: 22 March 2026 00:00
Orbit: 451 x 458 km, 53.2° (Epoch: 11 March)

Date Brightness Start Highest point End Pass type
(mag) Time Alt. Az. Time Alt. Az. Time Alt. Az.
12 Mar 4.4 03:15:32 19° ENE 03:15:32 19° ENE 03:16:43 10° ENE visible
12 Mar 1.9 04:49:12 28° WNW 04:50:58 72° NNE 04:54:33 10° ESE visible
13 Mar 2.0 04:14:27 60° NNW 04:14:46 64° NNE 04:18:21 10° E visible
13 Mar 2.4 05:48:45 10° WNW 05:52:08 38° SW 05:55:29 10° SE visible
14 Mar 3.3 03:39:46 36° ENE 03:39:46 36° ENE 03:42:07 10° E visible
14 Mar 2.1 05:13:28 17° WNW 05:16:00 47° SSW 05:19:28 10° SE visible
15 Mar 4.6 03:05:10 15° E 03:05:10 15° E 03:05:52 10° E visible
15 Mar 1.8 04:38:53 41° W 04:39:51 59° SSW 04:43:23 10° SE visible
16 Mar 2.2 04:04:24 52° SE 04:04:24 52° SE 04:07:15 10° ESE visible
16 Mar 3.5 05:38:21 10° W 05:40:36 16° SW 05:42:51 10° S visible
17 Mar 4.1 03:30:05 18° ESE 03:30:05 18° ESE 03:31:04 10° ESE visible
17 Mar 3.2 05:03:47 19° WSW 05:04:31 20° SW 05:07:12 10° S visible
18 Mar 3.4 04:29:40 20° S 04:29:40 20° S 04:31:22 10° SSE visible
